Content
SEND FEEDBACK

Daily
Averages
Monthly
Summary
United States of America

ST. LOUIS - GATEWAY ARCH, MISSOURI


Home > North America > United States > Missouri
Elevation: 450 feet     Latitude: 38 37N     Longitude: 090 11W

WEATHER
 
SELECT A DAY
Number of Records: 189,327;   Date Range: 1/1/95 - 10/30/14
 
SHARE

PRINT THIS DATA

[ ← Previous Day ]
WEATHER ALMANAC - MAY 4, 2013
[ Next Day → ]
[ °C ]   °F
Weather ElementAverageHighLow
Temperature44.9 °F51.1 °F (4:53 pm)41 °F (1:53 am)
Dewpoint39.8 °F44.6 °F (10:22 pm)37.4 °F (3:43 am)
Humidity82.7 %93 % (1:53 am)66 % (4:53 pm)
Barometer29.93 in30.01 in (9:53 pm)29.86 in (12:53 am)
Wind Speed3.6 mph8.1 mph (12:53 pm)
Weather ElementAverage
Visibility9.7 mi
Wind DirectionE (95.2 °)

Weather ElementTotal
Precipitation---
Heating Degree Days19 (Base 65)
Averaged from 33 records on May 4, 2013
WEATHER CONDITIONS BREAKOUT
WIND DIRECTION BREAKOUT
WEATHER BY HOUR - MAY 4, 2013
[ °C ]   °F
Local TimeTemperatureDewpointHumidityBarometerVisibilityWind DirectionWind SpeedGust SpeedPrecipitationEventsConditions
12:53 AM42.1 °F39.0 °F89 %29.86 in10.0 miSSW (210°)4.6 mph0.00 inOvercast
1:53 AM41.0 °F39.0 °F93 %29.86 in10.0 miWSW (240°)4.6 mph0.00 inRainLight Rain
2:53 AM41.0 °F37.9 °F89 %29.88 in10.0 miSouth (190°)4.6 mph0.00 inOvercast
3:43 AM41.0 °F37.4 °F87 %29.87 in10.0 miCalmOvercast
3:53 AM41.0 °F37.9 °F89 %29.88 in10.0 miSW (230°)3.5 mphOvercast
4:53 AM41.0 °F37.9 °F89 %29.88 in10.0 miCalmOvercast
5:19 AM41.0 °F37.4 °F87 %29.87 in10.0 miCalmOvercast
5:53 AM41.0 °F37.9 °F89 %29.89 in10.0 miCalmOvercast
6:37 AM41.0 °F37.4 °F87 %29.90 in10.0 miCalmScattered Clouds
6:53 AM41.0 °F39.0 °F93 %29.91 in10.0 miCalmMostly Cloudy
7:50 AM42.8 °F37.4 °F81 %29.91 in10.0 miCalmOvercast
7:53 AM42.1 °F37.9 °F85 %29.92 in10.0 miCalmOvercast
8:45 AM42.8 °F39.2 °F87 %29.92 in10.0 miESE (110°)4.6 mphOvercast
8:53 AM43.0 °F37.9 °F82 %29.94 in10.0 miSSE (160°)3.5 mphOvercast
9:10 AM42.8 °F37.4 °F81 %29.92 in10.0 miSE (140°)3.5 mphOvercast
9:53 AM44.1 °F37.9 °F79 %29.93 in10.0 miSouth (190°)3.5 mphOvercast
10:53 AM44.1 °F39.9 °F85 %29.94 in6.0 miSSE (150°)4.6 mphOvercast
11:00 AM44.6 °F39.2 °F81 %29.93 in9.0 miSSE (150°)3.5 mphOvercast
11:25 AM44.6 °F39.2 °F81 %29.93 in10.0 miSE (140°)5.8 mphOvercast
11:53 AM45.0 °F39.9 °F82 %29.95 in10.0 miVariable4.6 mphOvercast
12:53 PM46.0 °F41.0 °F83 %29.95 in5.0 miSE (130°)8.1 mphHaze
1:53 PM46.9 °F39.9 °F77 %29.94 in10.0 miESE (120°)6.9 mphOvercast
2:53 PM48.9 °F41.0 °F74 %29.95 in10.0 miESE (120°)6.9 mphOvercast
3:53 PM50.0 °F39.9 °F68 %29.95 in10.0 miEast (100°)5.8 mphOvercast
4:53 PM51.1 °F39.9 °F66 %29.96 in10.0 miEast (100°)4.6 mphOvercast
5:53 PM51.1 °F41.0 °F68 %29.96 in10.0 miVariable3.5 mphMostly Cloudy
6:53 PM51.1 °F41.0 °F68 %29.96 in10.0 miENE (60°)4.6 mphMostly Cloudy
7:53 PM48.9 °F42.1 °F77 %29.99 in10.0 miENE (70°)5.8 mphOvercast
8:53 PM48.9 °F43.0 °F80 %30.00 in10.0 miNE (50°)4.6 mphOvercast
9:53 PM48.0 °F44.1 °F86 %30.01 in10.0 miENE (60°)4.6 mphOvercast
10:22 PM48.2 °F44.6 °F87 %30.01 in10.0 miNE (40°)4.6 mphOvercast
10:53 PM48.0 °F44.1 °F86 %30.01 in10.0 miNNE (20°)3.5 mphOvercast
11:53 PM46.0 °F44.1 °F93 %30.00 in10.0 miNorth (360°)3.5 mphMostly Cloudy
Hourly data recorded from KCPS, located miles away from St. Louis - Gateway Arch, Missouri







STORIES FROM OUR PARTNERS